Погода в Барде

Россия / Пермский край     56°55′37″N   55°35′29″E
темп.,
°C
ветер,
м/с
пор.,
м/с
влажн.,
%
обл.,
%
осадки,
мм/ч
давл.,
гПа
погр.,
м
13 июня, вс
вс1323:00+14юв4138898 0.1 1018368
02:00+15юв5146775 0.0 1017414
05:00+14юв5136047 0.0 1017342
08:00+18ююв61360100 0.1 1017514
11:00+19ю61167100 0.7 1018731
14:00+22ююв796281 0.0 10171414
17:00+23ю696363 0.1 10171336
20:00+17ююв51292100 3.6 1017371
14 июня, пн
пн1423:00+16ююв31092100 3.8 1018219
02:00+14ююв279590 0.0 1018138
05:00+13ююв259315 0.0 101879
08:00+16ююв3679100 0.0 1018216
11:00+22ю465698 0.0 1018585
14:00+24ююз5657100 0.0 1017918
17:00+25ююз5761100 0.0 10171217
20:00+23ююз487793 0.4 1016399
15 июня, вт
вт1523:00+18ююз379091 0.4 1016129
02:00+17юз2295100 2.3 101632
05:00+16ю2294100 2.4 101620
08:00+18юв1193100 0.2 101620
11:00+24ю346898 0.2 1016678
14:00+26ююз345721 0.0 10151186
17:00+25ю445899 0.0 1014819
20:00+23ююв117695 0.0 101449
16 июня, ср
ср1623:00+18вюв2192100 1.6 101415
02:00+17ююв2395100 0.0 101351
05:00+17юз389899 0.1 1013322
08:00+17ююз279798 1.1 1014259
11:00+19юз2590100 1.1 1014237
14:00+26юз46576 0.0 10131105
17:00+27ююз44545 0.0 10121166
20:00+25ю267020 0.0 1011217
17 июня, чт
чт1723:00+20ю228511 0.0 101116
02:00+18ююв228879 0.0 100915
05:00+16ю22895 0.4 100815
08:00+21ююз27765 0.2 1007373
11:00+24зсз336259 0.3 1007937
14:00+21ссз81078100 0.1 1008820
17:00+20с7106898 2.0 10111418
20:00+18ссв510650 0.0 10131241